Home   Weather   Toledo   Past weeks

Flag for USA Past Weather in Toledo, Ohio, USA — Yesterday and Last 2 Weeks

Now
36 °F

Fog.


Feels Like: 30 °F
Forecast: 37 / 46 °F
Wind: 7 mph from East

Location: Toledo Suburban Airport

Current Time: Jan 19, 2017 at 11:09:39 pm

Latest Report: Jan 19, 2017 at 10:14 pm


Visibility: 4 mi

Pressure: 29.90 "Hg

Humidity: 92%

Dew Point: 34 °F

Location of ToledoLocation

Past Weather in Toledo — Graph

°F

Toledo Temperature Yesterday

Maximum temperature yesterday: 41 °F (at 2:34 pm)
Minimum temperature yesterday: 36 °F (at 11:34 pm)
Average temperature yesterday: 38 °F

High & Low Weather Summary for the Past Weeks

 TemperatureHumidityPressure
High60 °F (Jan 11, 11:54 pm)96% (Jan 17, 10:14 am)30.75 "Hg (Jan 17, 10:14 am)
Low5 °F (Jan 7, 5:54 am)49% (Jan 8, 12:14 pm)29.46 "Hg (Jan 10, 7:54 pm)
Average29 °F77%30.19 "Hg
* Reported Jan 4 9:14 pm — Jan 19 9:54 pm, Toledo, Weather by CustomWeather, © 2017

Note: Actual official high and low records may vary slightly from our data, if they occured in-between our weather recording intervals... More about our weather records

Advertising

Toledo Weather History for the Previous 24 Hours

Scroll right to see more
 ConditionsComfort  
Time TempWeatherWind HumidityBarometerVisibility
9:54 pm
Thu, Jan 19
36 °FFog.3 mph92%29.90 "Hg5 mi
9:14 pm36 °FFog.No wind91%29.91 "Hg5 mi
8:33 pm36 °FFog.No wind91%29.92 "Hg5 mi
7:54 pm37 °FClear.No wind89%29.93 "Hg7 mi
7:14 pm37 °FPassing clouds.No wind89%29.95 "Hg7 mi
6:54 pm37 °FFog.No wind89%29.95 "Hg5 mi
6:14 pm38 °FClear.No wind87%29.96 "Hg7 mi
5:54 pm38 °FClear.No wind85%29.96 "Hg7 mi
5:14 pm39 °FOvercast.No wind82%29.97 "Hg7 mi
4:34 pm39 °FOvercast.3 mph82%29.97 "Hg7 mi
3:54 pm40 °FPartly sunny.6 mph80%29.97 "Hg5 mi
3:14 pm40 °FScattered clouds.5 mph78%29.99 "Hg7 mi
2:54 pm40 °FScattered clouds.5 mph78%29.98 "Hg7 mi
2:14 pm40 °FPartly sunny.5 mph78%30.00 "Hg7 mi
1:34 pm38 °FPartly sunny.No wind82%30.00 "Hg7 mi
12:54 pm38 °FLow clouds.3 mph82%30.00 "Hg5 mi
12:14 pm37 °FFog.3 mph83%30.04 "Hg5 mi
11:54 am37 °FFog.No wind85%30.06 "Hg5 mi
11:14 am36 °FFog.No wind85%30.09 "Hg5 mi
10:34 am36 °FFog.3 mph87%30.08 "Hg3 mi
9:54 am35 °FFog.6 mph89%30.09 "Hg3 mi
9:14 am36 °FFog.6 mph87%30.09 "Hg3 mi
8:54 am35 °FFog.6 mph88%30.09 "Hg4 mi
8:14 am35 °FFog.5 mph88%30.08 "Hg5 mi
7:54 am36 °FFog.6 mph87%30.07 "Hg5 mi
7:14 am36 °FFog.6 mph87%30.08 "Hg5 mi
6:54 am36 °FFog.5 mph87%30.09 "Hg5 mi
6:34 am36 °FFog.6 mph87%30.09 "Hg5 mi
5:54 am36 °FFog.5 mph88%30.09 "Hg5 mi
5:14 am36 °FFog.7 mph87%30.09 "Hg5 mi
4:34 am36 °FLow clouds.10 mph87%30.08 "Hg7 mi
3:54 am36 °FLow clouds.9 mph87%30.08 "Hg7 mi
3:13 am35 °FLow clouds.7 mph89%30.09 "Hg7 mi
2:54 am35 °FLow clouds.8 mph88%30.07 "Hg7 mi
2:34 am35 °FLow clouds.8 mph88%30.07 "Hg7 mi
1:54 am35 °FLow clouds.7 mph89%30.07 "Hg7 mi
1:14 am35 °FLow clouds.9 mph90%30.07 "Hg7 mi
12:54 am35 °FLow clouds.9 mph90%30.07 "Hg7 mi
12:14 am35 °FLow clouds.5 mph90%30.08 "Hg7 mi
11:34 pm
Wed, Jan 18
36 °FFog.8 mph91%30.08 "Hg5 mi
Weather by CustomWeather, © 2017

See weather overviewHow to use our weather pages